FW7611 Weather Reports


Display with metric or nautical units.
time (UTC)temp
F
wind
direction
speed
MPH
gust
MPH
rain 1hr
in
rain 24hr
in
rain mn
in
humidity
%
barometer
mb
20260901133043 79 0 0.0 0.0 0.00 0.00 0.00 81 1022.4
20260901131542 77 0 0.0 0.0 0.00 0.00 0.00 82 1022.4
20260901130046 76 0 0.0 0.0 0.00 0.00 0.00 84 1022.2
20260901124542 75 0 0.0 0.0 0.00 0.00 0.00 87 1022.3
20260901123106 73 315 0.0 2.0 0.00 0.00 0.00 89 1022.3
20260901121544 72 0 0.0 2.0 0.00 0.00 0.00 91 1022.1
20260901120056 71 306 0.0 2.0 0.00 0.00 0.00 93 1021.9
20260901114545 71 0 0.0 2.0 0.00 0.00 0.00 94 1022.0
20260901113042 71 0 0.0 2.0 0.00 0.00 0.00 94 1021.6
20260901111549 70 0 0.0 2.0 0.00 0.00 0.00 94 1021.6
20260901110043 70 306 0.0 2.0 0.00 0.00 0.00 94 1021.5
20260901104543 70 306 0.0 2.0 0.00 0.00 0.00 94 1021.3
20260901103043 70 0 0.0 0.0 0.00 0.00 0.00 94 1021.2
20260901101540 70 0 0.0 0.0 0.00 0.00 0.00 94 1020.9
20260901100047 70 0 0.0 2.0 0.00 0.00 0.00 94 1021.0
20260901094540 71 0 0.0 2.0 0.00 0.00 0.00 94 1020.8
20260901093043 71 0 0.0 2.0 0.00 0.00 0.00 94 1020.7
20260901091540 71 0 0.0 2.0 0.00 0.00 0.00 94 1020.6
20260901090037 71 0 0.0 0.0 0.00 0.00 0.00 94 1020.7
20260901084540 71 0 0.0 0.0 0.00 0.00 0.00 94 1020.7
20260901083041 71 0 0.0 2.0 0.00 0.00 0.00 94 1020.7
20260901081550 71 0 0.0 0.0 0.00 0.00 0.00 94 1020.9
20260901080049 71 0 0.0 0.0 0.00 0.00 0.00 94 1020.8
20260901074549 71 0 0.0 0.0 0.00 0.00 0.00 94 1021.0
20260901073050 71 0 0.0 0.0 0.00 0.00 0.00 93 1021.1
20260901071548 71 0 0.0 0.0 0.00 0.00 0.00 93 1021.2
20260901070051 72 0 0.0 0.0 0.00 0.00 0.00 93 1021.5
20260901064545 72 0 0.0 0.0 0.00 0.00 0.00 93 1021.2
20260901063105 72 0 0.0 0.0 0.00 0.00 0.00 93 1021.4
20260901061558 72 0 0.0 0.0 0.00 0.00 0.00 92 1021.4
20260901060057 72 0 0.0 0.0 0.00 0.00 0.00 92 1021.5
20260901054547 73 0 0.0 0.0 0.00 0.00 0.00 92 1021.4
20260901053106 73 0 0.0 0.0 0.00 0.00 0.00 91 1021.7
20260901051548 73 0 0.0 0.0 0.00 0.00 0.00 92 1021.7
20260901050048 73 0 0.0 0.0 0.00 0.00 0.00 92 1021.7
20260901044543 73 0 0.0 0.0 0.00 0.00 0.00 92 1021.5
20260901043042 73 0 0.0 0.0 0.00 0.00 0.00 91 1021.5
20260901041546 73 0 0.0 0.0 0.00 0.00 0.00 90 1021.6
20260901040049 73 0 0.0 0.0 0.00 0.00 0.00 90 1021.6
20260901034541 74 0 0.0 0.0 0.00 0.00 0.00 90 1021.5
20260901033049 74 0 0.0 0.0 0.00 0.00 0.00 90 1021.5
20260901031557 74 0 0.0 0.0 0.00 0.00 0.00 89 1021.7
20260901030040 74 0 0.0 0.0 0.00 0.00 0.00 89 1021.6
20260901024541 75 0 0.0 0.0 0.00 0.00 0.00 88 1021.5
20260901023051 75 0 0.0 0.0 0.00 0.00 0.00 88 1021.5
20260901021549 76 0 0.0 0.0 0.00 0.00 0.00 87 1021.5
20260901020100 76 0 0.0 0.0 0.00 0.00 0.00 84 1021.4
20260901014543 76 0 0.0 0.0 0.00 0.00 0.00 84 1021.1
20260901013046 77 0 0.0 0.0 0.00 0.00 0.00 85 1021.0
20260901011549 77 0 0.0 0.0 0.00 0.00 0.00 85 1020.9
20260901010043 78 0 0.0 0.0 0.00 0.00 0.00 84 1020.7
20260901004600 78 0 0.0 0.0 0.00 0.00 0.00 84 1020.6
20260901003048 78 0 0.0 0.0 0.00 0.00 0.00 84 1020.5
20260901001549 79 0 0.0 0.0 0.00 0.00 0.00 82 1020.4
20260901000104 80 0 0.0 0.0 0.00 0.00 0.00 81 1020.3
20260831234542 81 0 0.0 2.0 0.00 0.00 0.00 78 1020.1
20260831233049 82 0 0.0 2.0 0.00 0.00 0.00 75 1020.0
20260831231550 82 0 0.0 2.0 0.00 0.00 0.00 74 1020.2
20260831230045 84 0 0.0 2.0 0.00 0.00 0.00 71 1020.4
20260831224543 85 0 0.0 2.0 0.00 0.00 0.00 68 1020.3
20260831223057 85 0 0.0 2.0 0.00 0.00 0.00 67 1020.2
20260831221546 86 0 0.0 2.0 0.00 0.00 0.00 63 1020.3
20260831220041 87 0 0.0 2.0 0.00 0.00 0.00 63 1020.4
20260831214541 87 0 0.0 2.0 0.00 0.00 0.00 60 1020.6
20260831213050 87 0 0.0 2.0 0.00 0.00 0.00 62 1020.6
20260831211547 87 109 0.0 3.0 0.00 0.00 0.00 63 1020.5
20260831210041 87 0 0.0 5.0 0.00 0.00 0.00 63 1020.7
20260831204547 87 214 2.0 3.0 0.00 0.00 0.00 65 1020.8
20260831203046 86 0 0.0 0.0 0.00 0.00 0.00 63 1020.8
20260831201541 84 0 0.0 0.0 0.00 0.00 0.00 71 1020.8
20260831200040 84 0 0.0 0.0 0.00 0.00 0.00 66 1021.2
20260831194616 83 0 0.0 0.0 0.00 0.00 0.00 67 1021.5
20260831193047 84 0 0.0 2.0 0.00 0.00 0.00 68 1021.7
20260831191542 82 58 1.0 3.0 0.00 0.00 0.00 69 1021.8
20260831190054 83 55 1.0 4.0 0.00 0.00 0.00 67 1021.9
20260831184547 85 26 2.0 9.0 0.00 0.00 0.00 65 1021.9
20260831183046 88 37 0.0 2.0 0.00 0.00 0.00 57 1022.0
20260831181547 90 333 1.0 4.0 0.00 0.00 0.00 55 1021.9
20260831180049 91 333 1.0 4.0 0.00 0.00 0.00 53 1022.1
20260831174541 90 321 1.0 2.0 0.00 0.00 0.00 54 1022.4
20260831173050 91 289 0.0 2.0 0.00 0.00 0.00 57 1022.4
20260831171546 90 257 1.0 3.0 0.00 0.00 0.00 59 1022.5
20260831170040 89 51 1.0 2.0 0.00 0.00 0.00 60 1022.5
20260831164546 89 337 1.0 2.0 0.00 0.00 0.00 60 1022.5
20260831163049 88 59 1.0 2.0 0.00 0.00 0.00 64 1022.7
20260831161547 88 0 0.0 6.0 0.00 0.00 0.00 64 1022.8
20260831160043 87 227 0.0 2.0 0.00 0.00 0.00 66 1022.8
20260831154649 85 173 1.0 2.0 0.00 0.00 0.00 67 1022.7
20260831153049 84 165 2.0 4.0 0.00 0.00 0.00 71 1023.1
20260831151540 84 0 0.0 4.0 0.00 0.00 0.00 72 1023.0
20260831150042 83 211 0.0 2.0 0.00 0.00 0.00 73 1023.0
20260831144548 81 247 0.0 2.0 0.00 0.00 0.00 75 1023.1
20260831143105 80 217 1.0 2.0 0.00 0.00 0.00 76 1023.1
20260831141605 79 212 0.0 2.0 0.00 0.00 0.00 79 1023.0
20260831140052 78 0 1.0 2.0 0.00 0.00 0.00 81 1023.0
20260831134542 76 290 2.0 4.0 0.00 0.00 0.00 83 1023.0